Location: Bailleul
(50.3375°N, 2.8513°E)
Time: 19:40:36
(UTC+00:00)

Terra - Pass Details

Date: 19 April 2021
Orbit: 701 x 703 km, 98.2° (Epoch: 18 May)

Event Time Altitude Azimuth Distance (km) Brightness Sun altitude
Exits shadow 20:33:16 20° 101° (ESE) 1,583 3.1 -15.1°
Maximum altitude 20:35:19 28° 62° (ENE) 1,314 3.0 -15.4°
Drops below altitude 10° 20:39:21 10° 5° (N) 2,183 4.9 -15.8°
Sets 20:41:51 0° 354° (N) 3,106 5.9 -16.1°
